Regional Weather Roundup
Issued by NWS

Home | Current Version | Previous Version | Graphics & Text | Print | Product List | Glossary On
Versions: 1 2 3 4 5 6 7 8 9 10 11 12 13 14 15 16 17 18 19 20 21 22 23 24 25 26 27 28 29 30 31 32 33 34 35 36 37 38 39 40 41 42 43 44 45 46 47 48 49 50
982
ASUS43 KFSD 240002
RWRSD

WEATHER ROUNDUP FOR SOUTH DAKOTA
NATIONAL WEATHER SERVICE SIOUX FALLS SD
700 PM CDT THU MAR 23 2017

NOTE: "FAIR" INDICATES FEW OR NO CLOUDS BELOW 12,000 FEET WITH NO
SIGNIFICANT WEATHER AND/OR OBSTRUCTIONS TO VISIBILITY.


SDZ001>005-009-010-012>017-240100-
NORTHWEST AND NORTH CENTRAL SOUTH DAKOTA

CITY           SKY/WX    TMP DP  RH WIND       PRES   REMARKS
BUFFALO          N/A     44  41  89 CALM      29.78R
FAITH            N/A     47  42  83 N14       29.76R
MOBRIDGE       CLOUDY    47  37  68 N20       29.71R
$$

SDZ012>016-024>037-041>051-057-063-072>074-240100-
SOUTHWEST AND SOUTH CENTRAL SOUTH DAKOTA

CITY           SKY/WX    TMP DP  RH WIND       PRES   REMARKS
RAPID CTY ARPT CLOUDY    46  39  76 N22       29.78R
PIERRE         CLOUDY    57  43  59 SE3       29.66R
CUSTER         CLOUDY    42  35  76 N8        29.75R
ELLSWORTH AFB  CLOUDY    46  42  84 N17       29.79R
PHILIP         CLOUDY    55  40  56 N17G28    29.70R
PINE RIDGE     CLOUDY    53  43  68 N22G29    29.72R
SPEARFISH      LGT RAIN  41  41 100 N14       29.85R
WINNER         FAIR      61  48  62 E7        29.62R
$$

SDZ004>011-016>023-039-040-240100-
NORTHEAST SOUTH DAKOTA

CITY           SKY/WX    TMP DP  RH WIND       PRES   REMARKS
ABERDEEN       CLOUDY    41  34  76 N8        29.75R
WATERTOWN      CLOUDY    39  38  96 SE7       29.71R FOG
BROOKINGS      LGT RAIN  41  39  93 SE9       29.69S
SISSETON         N/A     36  36 100 S6        29.76R
$$

SDZ017-020-022-023-036>040-048>070-240100-
SOUTHEAST SOUTH DAKOTA

CITY           SKY/WX    TMP DP  RH WIND       PRES   REMARKS
SIOUX FALLS    CLOUDY    48  41  76 E8        29.67F
HURON          CLOUDY    44  43  96 NE6       29.69R
CHAMBERLAIN    PTCLDY    55  52  90 E5        29.66R
MITCHELL       CLOUDY    50  46  86 E5        29.66R
YANKTON        CLOUDY    57  48  72 E7        29.62F
$$

ABBREVIATIONS USED IN REMARKS
   TC - TEMPERATURE IN CELSIUS
  WCI - WIND CHILL INDEX
   HX - HEAT INDEX
  VSB - VISIBILITY





USA.gov is the U.S. government's official web portal to all federal, state and local government web resources and services.